| time (UTC) | temp C | wind direction | speed KPH | gust KPH | rain 1hr cm | rain 24hr cm | rain mn cm | humidity % | barometer mb |
| 20260506175235 | 20 | 0 | 0.0 | 4.8 | 0.00 | 0.00 | 0.00 | 62 | 1020.1 |
| 20260506174736 | 20 | 0 | 0.0 | 12.9 | 0.00 | 0.00 | 0.00 | 62 | 1020.0 |
| 20260506174235 | 20 | 26 | 1.6 | 12.9 | 0.00 | 0.00 | 0.00 | 61 | 1020.2 |
| 20260506173736 | 20 | 58 | 3.2 | 12.9 | 0.00 | 0.00 | 0.00 | 61 | 1020.2 |
| 20260506173237 | 20 | 32 | 1.6 | 12.9 | 0.00 | 0.00 | 0.00 | 61 | 1020.2 |
| 20260506172735 | 19 | 0 | 0.0 | 9.7 | 0.00 | 0.00 | 0.00 | 62 | 1020.2 |
| 20260506172236 | 19 | 36 | 4.8 | 9.7 | 0.00 | 0.00 | 0.00 | 64 | 1020.3 |
| 20260506171735 | 19 | 321 | 1.6 | 6.4 | 0.00 | 0.00 | 0.00 | 65 | 1020.2 |
| 20260506171235 | 18 | 0 | 0.0 | 8.0 | 0.00 | 0.00 | 0.00 | 64 | 1020.2 |
| 20260506170735 | 18 | 10 | 3.2 | 14.5 | 0.00 | 0.00 | 0.00 | 64 | 1020.2 |
| 20260506170235 | 18 | 31 | 4.8 | 14.5 | 0.00 | 0.00 | 0.00 | 65 | 1020.2 |
| 20260506165735 | 18 | 322 | 6.4 | 12.9 | 0.00 | 0.00 | 0.00 | 65 | 1020.3 |
| 20260506165235 | 18 | 22 | 3.2 | 14.5 | 0.00 | 0.00 | 0.00 | 66 | 1020.3 |
| 20260506164736 | 18 | 13 | 6.4 | 14.5 | 0.00 | 0.00 | 0.00 | 66 | 1020.3 |
| 20260506164235 | 18 | 43 | 4.8 | 16.1 | 0.00 | 0.00 | 0.00 | 67 | 1020.3 |
| 20260506163735 | 18 | 337 | 6.4 | 16.1 | 0.00 | 0.00 | 0.00 | 68 | 1020.3 |
| 20260506163235 | 17 | 332 | 3.2 | 17.7 | 0.00 | 0.00 | 0.00 | 68 | 1020.3 |
| 20260506162735 | 17 | 295 | 6.4 | 17.7 | 0.00 | 0.00 | 0.00 | 68 | 1020.3 |
| 20260506162235 | 17 | 322 | 6.4 | 17.7 | 0.00 | 0.00 | 0.00 | 69 | 1020.3 |
| 20260506161735 | 17 | 320 | 6.4 | 17.7 | 0.00 | 0.00 | 0.00 | 70 | 1020.3 |
| 20260506161235 | 17 | 312 | 9.7 | 17.7 | 0.00 | 0.00 | 0.00 | 70 | 1020.4 |
| 20260506160735 | 17 | 339 | 6.4 | 17.7 | 0.00 | 0.00 | 0.00 | 71 | 1020.4 |
| 20260506160235 | 17 | 316 | 6.4 | 14.5 | 0.00 | 0.00 | 0.00 | 72 | 1020.4 |
| 20260506155735 | 16 | 310 | 6.4 | 14.5 | 0.00 | 0.00 | 0.00 | 73 | 1020.5 |
| 20260506155235 | 16 | 346 | 8.0 | 16.1 | 0.00 | 0.00 | 0.00 | 73 | 1020.5 |
| 20260506154735 | 16 | 342 | 6.4 | 16.1 | 0.00 | 0.00 | 0.00 | 73 | 1020.6 |
| 20260506154235 | 16 | 318 | 8.0 | 17.7 | 0.00 | 0.00 | 0.00 | 74 | 1020.6 |
| 20260506153735 | 16 | 328 | 4.8 | 17.7 | 0.00 | 0.00 | 0.00 | 75 | 1020.6 |
| 20260506153235 | 16 | 332 | 4.8 | 17.7 | 0.00 | 0.00 | 0.00 | 75 | 1020.6 |
| 20260506152735 | 15 | 315 | 11.3 | 17.7 | 0.00 | 0.00 | 0.00 | 76 | 1020.6 |
| 20260506152235 | 15 | 338 | 8.0 | 16.1 | 0.00 | 0.00 | 0.00 | 77 | 1020.6 |
| 20260506151334 | 15 | 312 | 6.4 | 16.1 | 0.00 | 0.00 | 0.00 | 78 | 1020.6 |
| 20260506150835 | 14 | 317 | 6.4 | 16.1 | 0.00 | 0.00 | 0.00 | 79 | 1020.6 |
| 20260506150335 | 13 | 283 | 6.4 | 11.3 | 0.00 | 0.00 | 0.00 | 79 | 1020.6 |
| 20260506145834 | 13 | 290 | 4.8 | 12.9 | 0.00 | 0.00 | 0.00 | 80 | 1020.6 |
| 20260506145335 | 13 | 295 | 6.4 | 12.9 | 0.00 | 0.00 | 0.00 | 80 | 1020.6 |
| 20260506144335 | 12 | 258 | 3.2 | 8.0 | 0.00 | 0.00 | 0.00 | 80 | 1020.7 |
| 20260506143834 | 12 | 246 | 6.4 | 11.3 | 0.00 | 0.00 | 0.00 | 80 | 1020.7 |
| 20260506143335 | 12 | 244 | 6.4 | 11.3 | 0.00 | 0.00 | 0.00 | 81 | 1020.6 |
| 20260506142835 | 12 | 245 | 6.4 | 8.0 | 0.00 | 0.00 | 0.00 | 81 | 1020.5 |
| 20260506142334 | 11 | 242 | 4.8 | 8.0 | 0.00 | 0.00 | 0.00 | 81 | 1020.5 |
| 20260506141834 | 11 | 245 | 4.8 | 8.0 | 0.00 | 0.00 | 0.00 | 81 | 1020.4 |
| 20260506140835 | 11 | 244 | 6.4 | 9.7 | 0.00 | 0.00 | 0.00 | 81 | 1020.4 |
| 20260506140334 | 10 | 242 | 6.4 | 8.0 | 0.00 | 0.00 | 0.00 | 81 | 1020.4 |
| 20260506135834 | 10 | 240 | 4.8 | 8.0 | 0.00 | 0.00 | 0.00 | 81 | 1020.3 |
| 20260506135335 | 10 | 246 | 4.8 | 8.0 | 0.00 | 0.00 | 0.00 | 81 | 1020.3 |
| 20260506134834 | 10 | 239 | 3.2 | 8.0 | 0.00 | 0.00 | 0.00 | 81 | 1020.2 |
| 20260506134334 | 10 | 234 | 4.8 | 8.0 | 0.00 | 0.00 | 0.00 | 81 | 1020.2 |
| 20260506133835 | 10 | 236 | 4.8 | 6.4 | 0.00 | 0.00 | 0.00 | 81 | 1020.1 |
| 20260506133334 | 9 | 242 | 3.2 | 4.8 | 0.00 | 0.00 | 0.00 | 81 | 1020.1 |
| 20260506132835 | 9 | 245 | 3.2 | 4.8 | 0.00 | 0.00 | 0.00 | 81 | 1020.0 |
| 20260506132039 | 9 | 234 | 3.2 | 4.8 | 0.00 | 0.00 | 0.00 | 81 | 1019.9 |
| 20260506131539 | 9 | 229 | 3.2 | 6.4 | 0.00 | 0.00 | 0.00 | 80 | 1019.9 |
| 20260506131040 | 9 | 229 | 3.2 | 6.4 | 0.00 | 0.00 | 0.00 | 80 | 1019.8 |
| 20260506125747 | 10 | 240 | 4.8 | 8.0 | 0.00 | 0.00 | 0.00 | 80 | 1019.7 |
| 20260506125247 | 10 | 237 | 4.8 | 8.0 | 0.00 | 0.00 | 0.00 | 80 | 1019.6 |
| 20260506124746 | 10 | 234 | 4.8 | 8.0 | 0.00 | 0.00 | 0.00 | 80 | 1019.6 |
| 20260506124247 | 10 | 235 | 4.8 | 8.0 | 0.00 | 0.00 | 0.00 | 80 | 1019.6 |
| 20260506123747 | 10 | 249 | 3.2 | 6.4 | 0.00 | 0.00 | 0.00 | 80 | 1019.6 |
| 20260506123246 | 10 | 256 | 1.6 | 4.8 | 0.00 | 0.00 | 0.00 | 80 | 1019.5 |
| 20260506122746 | 10 | 257 | 1.6 | 4.8 | 0.00 | 0.00 | 0.00 | 80 | 1019.5 |
| 20260506122247 | 10 | 258 | 3.2 | 4.8 | 0.00 | 0.00 | 0.00 | 79 | 1019.4 |
| 20260506121540 | 10 | 249 | 3.2 | 4.8 | 0.00 | 0.00 | 0.00 | 79 | 1019.3 |
| 20260506121040 | 10 | 247 | 3.2 | 4.8 | 0.00 | 0.00 | 0.00 | 79 | 1019.4 |
| 20260506120540 | 10 | 240 | 1.6 | 4.8 | 0.00 | 0.00 | 0.00 | 79 | 1019.4 |
| 20260506120040 | 10 | 243 | 3.2 | 4.8 | 0.00 | 0.00 | 0.00 | 79 | 1019.3 |
| 20260506115540 | 10 | 242 | 1.6 | 6.4 | 0.00 | 0.00 | 0.00 | 79 | 1019.3 |
| 20260506115042 | 10 | 234 | 4.8 | 6.4 | 0.00 | 0.00 | 0.00 | 79 | 1019.3 |
| 20260506114540 | 10 | 238 | 3.2 | 6.4 | 0.00 | 0.00 | 0.00 | 79 | 1019.2 |
| 20260506113847 | 10 | 239 | 3.2 | 6.4 | 0.00 | 0.00 | 0.00 | 79 | 1019.1 |
| 20260506113347 | 10 | 236 | 1.6 | 6.4 | 0.00 | 0.00 | 0.00 | 79 | 1019.2 |
| 20260506112848 | 10 | 231 | 3.2 | 6.4 | 0.00 | 0.00 | 0.00 | 79 | 1019.0 |
| 20260506112348 | 10 | 229 | 3.2 | 4.8 | 0.00 | 0.00 | 0.00 | 79 | 1019.0 |
| 20260506111424 | 10 | 236 | 3.2 | 6.4 | 0.00 | 0.00 | 0.00 | 79 | 1018.9 |
| 20260506110924 | 10 | 236 | 4.8 | 6.4 | 0.00 | 0.00 | 0.00 | 79 | 1018.9 |
| 20260506110425 | 10 | 238 | 3.2 | 6.4 | 0.00 | 0.00 | 0.00 | 79 | 1018.8 |
| 20260506105241 | 10 | 229 | 3.2 | 6.4 | 0.00 | 0.00 | 0.00 | 79 | 1018.8 |
| 20260506104743 | 10 | 229 | 4.8 | 8.0 | 0.00 | 0.00 | 0.00 | 78 | 1018.8 |
| 20260506104241 | 10 | 235 | 4.8 | 8.0 | 0.00 | 0.00 | 0.00 | 78 | 1018.8 |
| 20260506103741 | 10 | 232 | 4.8 | 8.0 | 0.00 | 0.00 | 0.00 | 78 | 1018.7 |
| 20260506103241 | 10 | 238 | 4.8 | 9.7 | 0.00 | 0.00 | 0.00 | 78 | 1018.7 |
| 20260506102742 | 10 | 243 | 6.4 | 9.7 | 0.00 | 0.00 | 0.00 | 78 | 1018.6 |
| 20260506102242 | 10 | 248 | 6.4 | 9.7 | 0.00 | 0.00 | 0.00 | 78 | 1018.6 |
| 20260506101741 | 10 | 246 | 4.8 | 8.0 | 0.00 | 0.00 | 0.00 | 78 | 1018.6 |
| 20260506101242 | 10 | 255 | 1.6 | 6.4 | 0.00 | 0.00 | 0.00 | 77 | 1018.5 |
| 20260506100742 | 10 | 237 | 1.6 | 8.0 | 0.00 | 0.00 | 0.00 | 77 | 1018.6 |
| 20260506100241 | 10 | 235 | 3.2 | 8.0 | 0.00 | 0.00 | 0.00 | 77 | 1018.5 |
| 20260506095741 | 11 | 235 | 4.8 | 8.0 | 0.00 | 0.00 | 0.00 | 76 | 1018.6 |
| 20260506095243 | 11 | 233 | 4.8 | 8.0 | 0.00 | 0.00 | 0.00 | 76 | 1018.6 |
| 20260506094742 | 11 | 247 | 3.2 | 8.0 | 0.00 | 0.00 | 0.00 | 76 | 1018.5 |
| 20260506094241 | 11 | 241 | 4.8 | 9.7 | 0.00 | 0.00 | 0.00 | 76 | 1018.5 |
| 20260506093742 | 11 | 239 | 6.4 | 9.7 | 0.00 | 0.00 | 0.00 | 77 | 1018.6 |
| 20260506093242 | 11 | 246 | 4.8 | 6.4 | 0.00 | 0.00 | 0.00 | 77 | 1018.5 |
| 20260506092741 | 11 | 255 | 3.2 | 6.4 | 0.00 | 0.00 | 0.00 | 76 | 1018.5 |
| 20260506092241 | 11 | 250 | 3.2 | 8.0 | 0.00 | 0.00 | 0.00 | 76 | 1018.5 |
| 20260506091741 | 11 | 245 | 4.8 | 8.0 | 0.00 | 0.00 | 0.00 | 76 | 1018.5 |
| 20260506091242 | 11 | 246 | 4.8 | 6.4 | 0.00 | 0.00 | 0.00 | 77 | 1018.5 |
| 20260506090741 | 12 | 252 | 4.8 | 6.4 | 0.00 | 0.00 | 0.00 | 78 | 1018.5 |
| 20260506090242 | 12 | 264 | 4.8 | 6.4 | 0.00 | 0.00 | 0.00 | 78 | 1018.5 |
| 20260506085648 | 12 | 262 | 3.2 | 8.0 | 0.00 | 0.00 | 0.00 | 77 | 1018.5 |
| 20260506085148 | 12 | 252 | 4.8 | 8.0 | 0.00 | 0.00 | 0.00 | 77 | 1018.6 |
| 20260506084648 | 12 | 259 | 4.8 | 6.4 | 0.00 | 0.00 | 0.00 | 77 | 1018.6 |
| 20260506084148 | 12 | 274 | 4.8 | 6.4 | 0.00 | 0.00 | 0.00 | 77 | 1018.6 |
| 20260506083631 | 12 | 283 | 3.2 | 6.4 | 0.00 | 0.00 | 0.00 | 77 | 1018.6 |
| 20260506083131 | 12 | 288 | 4.8 | 6.4 | 0.00 | 0.00 | 0.00 | 77 | 1018.5 |
| 20260506082632 | 12 | 295 | 4.8 | 9.7 | 0.00 | 0.00 | 0.00 | 77 | 1018.5 |
| 20260506082132 | 12 | 293 | 4.8 | 9.7 | 0.00 | 0.00 | 0.00 | 77 | 1018.5 |
| 20260506081131 | 12 | 292 | 3.2 | 6.4 | 0.00 | 0.00 | 0.00 | 76 | 1018.5 |
| 20260506080631 | 12 | 294 | 3.2 | 6.4 | 0.00 | 0.00 | 0.00 | 75 | 1018.3 |
| 20260506080131 | 12 | 298 | 4.8 | 6.4 | 0.00 | 0.00 | 0.00 | 75 | 1018.3 |
| 20260506073131 | 13 | 318 | 4.8 | 8.0 | 0.00 | 0.00 | 0.00 | 74 | 1018.2 |
| 20260506072631 | 13 | 324 | 4.8 | 8.0 | 0.00 | 0.00 | 0.00 | 75 | 1018.1 |
| 20260506072132 | 13 | 323 | 4.8 | 8.0 | 0.00 | 0.00 | 0.00 | 74 | 1018.1 |
| 20260506071132 | 13 | 325 | 4.8 | 9.7 | 0.00 | 0.00 | 0.00 | 75 | 1018.0 |
| 20260506070631 | 13 | 333 | 6.4 | 9.7 | 0.00 | 0.00 | 0.00 | 74 | 1017.9 |
| 20260506070132 | 13 | 339 | 4.8 | 12.9 | 0.00 | 0.00 | 0.00 | 74 | 1017.8 |
| 20260506062404 | 13 | 330 | 6.4 | 9.7 | 0.00 | 0.00 | 0.00 | 72 | 1017.7 |
| 20260506061905 | 13 | 326 | 6.4 | 9.7 | 0.00 | 0.00 | 0.00 | 71 | 1017.6 |
| 20260506061404 | 13 | 331 | 3.2 | 8.0 | 0.00 | 0.00 | 0.00 | 71 | 1017.6 |
| 20260506060405 | 13 | 321 | 3.2 | 6.4 | 0.00 | 0.00 | 0.00 | 70 | 1017.6 |
| 20260506051404 | 13 | 355 | 3.2 | 4.8 | 0.00 | 0.00 | 0.00 | 69 | 1017.1 |
| 20260506050906 | 14 | 355 | 1.6 | 4.8 | 0.00 | 0.00 | 0.00 | 68 | 1017.0 |
| 20260506050405 | 14 | 355 | 1.6 | 4.8 | 0.00 | 0.00 | 0.00 | 68 | 1016.9 |
| 20260506044904 | 14 | 355 | 3.2 | 6.4 | 0.00 | 0.00 | 0.00 | 66 | 1016.7 |
| 20260506044404 | 15 | 355 | 3.2 | 6.4 | 0.00 | 0.00 | 0.00 | 66 | 1016.6 |
| 20260506043906 | 15 | 355 | 3.2 | 4.8 | 0.00 | 0.00 | 0.00 | 66 | 1016.6 |
| 20260506043404 | 15 | 355 | 1.6 | 4.8 | 0.00 | 0.00 | 0.00 | 65 | 1016.6 |
| 20260506042905 | 15 | 355 | 1.6 | 3.2 | 0.00 | 0.00 | 0.00 | 65 | 1016.5 |
| 20260506042404 | 15 | 355 | 1.6 | 4.8 | 0.00 | 0.00 | 0.00 | 64 | 1016.4 |
| 20260506041905 | 15 | 355 | 1.6 | 4.8 | 0.00 | 0.00 | 0.00 | 64 | 1016.3 |
| 20260506041405 | 15 | 355 | 1.6 | 3.2 | 0.00 | 0.00 | 0.00 | 63 | 1016.2 |
| 20260506040907 | 15 | 355 | 1.6 | 3.2 | 0.00 | 0.00 | 0.00 | 64 | 1016.2 |
| 20260506040405 | 15 | 355 | 1.6 | 4.8 | 0.00 | 0.00 | 0.00 | 64 | 1016.1 |
| 20260506035905 | 16 | 355 | 1.6 | 4.8 | 0.00 | 0.00 | 0.00 | 64 | 1016.1 |
| 20260506035405 | 16 | 355 | 1.6 | 4.8 | 0.00 | 0.00 | 0.00 | 63 | 1016.0 |
| 20260506034905 | 16 | 355 | 1.6 | 4.8 | 0.00 | 0.00 | 0.00 | 63 | 1016.0 |
| 20260506034405 | 16 | 355 | 3.2 | 4.8 | 0.00 | 0.00 | 0.00 | 63 | 1015.9 |
| 20260506033905 | 16 | 355 | 1.6 | 6.4 | 0.00 | 0.00 | 0.00 | 62 | 1015.9 |
| 20260506033404 | 16 | 355 | 3.2 | 6.4 | 0.00 | 0.00 | 0.00 | 61 | 1015.8 |
| 20260506032906 | 16 | 355 | 4.8 | 6.4 | 0.00 | 0.00 | 0.00 | 60 | 1015.8 |
| 20260506032405 | 17 | 355 | 3.2 | 6.4 | 0.00 | 0.00 | 0.00 | 60 | 1015.7 |
| 20260506031904 | 17 | 355 | 3.2 | 6.4 | 0.00 | 0.00 | 0.00 | 59 | 1015.6 |
| 20260506031404 | 17 | 355 | 3.2 | 6.4 | 0.00 | 0.00 | 0.00 | 59 | 1015.5 |
| 20260506030905 | 17 | 355 | 3.2 | 6.4 | 0.00 | 0.00 | 0.00 | 59 | 1015.4 |
| 20260506030405 | 17 | 354 | 3.2 | 8.0 | 0.00 | 0.00 | 0.00 | 58 | 1015.4 |
| 20260506025404 | 18 | 345 | 4.8 | 12.9 | 0.00 | 0.00 | 0.00 | 57 | 1015.2 |
| 20260506024904 | 18 | 337 | 4.8 | 9.7 | 0.00 | 0.00 | 0.00 | 57 | 1015.1 |
| 20260506024405 | 18 | 355 | 3.2 | 14.5 | 0.00 | 0.00 | 0.00 | 57 | 1015.1 |
| 20260506023906 | 18 | 10 | 6.4 | 14.5 | 0.00 | 0.00 | 0.00 | 57 | 1015.0 |
| 20260506023405 | 18 | 14 | 6.4 | 12.9 | 0.00 | 0.00 | 0.00 | 57 | 1015.0 |
| 20260506022848 | 18 | 14 | 6.4 | 14.5 | 0.00 | 0.00 | 0.00 | 56 | 1014.9 |
| 20260506022347 | 18 | 14 | 6.4 | 14.5 | 0.00 | 0.00 | 0.00 | 56 | 1014.9 |
| 20260506021848 | 18 | 26 | 4.8 | 12.9 | 0.00 | 0.00 | 0.00 | 56 | 1014.8 |
| 20260506021348 | 18 | 31 | 4.8 | 14.5 | 0.00 | 0.00 | 0.00 | 55 | 1014.7 |
| 20260506020848 | 18 | 12 | 8.0 | 14.5 | 0.00 | 0.00 | 0.00 | 56 | 1014.8 |
| 20260506020348 | 18 | 28 | 6.4 | 14.5 | 0.00 | 0.00 | 0.00 | 56 | 1014.8 |
| 20260506015847 | 18 | 20 | 6.4 | 14.5 | 0.00 | 0.00 | 0.00 | 56 | 1014.7 |
| 20260506015347 | 18 | 15 | 6.4 | 14.5 | 0.00 | 0.00 | 0.00 | 55 | 1014.7 |
| 20260506014847 | 19 | 20 | 4.8 | 11.3 | 0.00 | 0.00 | 0.00 | 54 | 1014.7 |
| 20260506014348 | 19 | 345 | 3.2 | 9.7 | 0.00 | 0.00 | 0.00 | 52 | 1014.6 |
| 20260506013848 | 19 | 359 | 3.2 | 14.5 | 0.00 | 0.00 | 0.00 | 52 | 1014.6 |
| 20260506013348 | 19 | 337 | 8.0 | 14.5 | 0.00 | 0.00 | 0.00 | 53 | 1014.6 |
| 20260506012848 | 19 | 26 | 6.4 | 14.5 | 0.00 | 0.00 | 0.00 | 53 | 1014.6 |
| 20260506012349 | 20 | 18 | 6.4 | 16.1 | 0.00 | 0.00 | 0.00 | 52 | 1014.6 |
| 20260506011847 | 20 | 28 | 6.4 | 16.1 | 0.00 | 0.00 | 0.00 | 52 | 1014.5 |
| 20260506011114 | 20 | 34 | 4.8 | 16.1 | 0.00 | 0.00 | 0.00 | 52 | 1014.5 |
| 20260506010613 | 20 | 40 | 6.4 | 14.5 | 0.00 | 0.00 | 0.00 | 52 | 1014.5 |
| 20260506010113 | 20 | 11 | 8.0 | 16.1 | 0.00 | 0.00 | 0.00 | 50 | 1014.6 |
| 20260506005613 | 20 | 20 | 8.0 | 16.1 | 0.00 | 0.00 | 0.00 | 51 | 1014.5 |
| 20260506005113 | 20 | 27 | 4.8 | 12.9 | 0.00 | 0.00 | 0.00 | 51 | 1014.5 |
| 20260506004613 | 20 | 31 | 4.8 | 12.9 | 0.00 | 0.00 | 0.00 | 51 | 1014.5 |
| 20260506004113 | 20 | 37 | 6.4 | 12.9 | 0.00 | 0.00 | 0.00 | 51 | 1014.5 |
| 20260506003613 | 20 | 35 | 3.2 | 12.9 | 0.00 | 0.00 | 0.00 | 50 | 1014.5 |
| 20260506003008 | 21 | 4 | 8.0 | 14.5 | 0.00 | 0.00 | 0.00 | 49 | 1014.5 |
| 20260506002508 | 20 | 342 | 4.8 | 14.5 | 0.00 | 0.00 | 0.00 | 49 | 1014.5 |
| 20260506002008 | 20 | 345 | 4.8 | 14.5 | 0.00 | 0.00 | 0.00 | 50 | 1014.5 |
| 20260506001508 | 20 | 48 | 1.6 | 6.4 | 0.00 | 0.00 | 0.00 | 51 | 1014.5 |
| 20260506000848 | 20 | 20 | 4.8 | 14.5 | 0.00 | 0.00 | 0.00 | 50 | 1014.6 |
| 20260506000348 | 20 | 24 | 4.8 | 14.5 | 0.00 | 0.00 | 0.00 | 50 | 1014.5 |
| 20260505235848 | 21 | 32 | 4.8 | 16.1 | 0.00 | 0.00 | 0.00 | 49 | 1014.4 |
| 20260505235348 | 21 | 335 | 9.7 | 16.1 | 0.00 | 0.00 | 0.00 | 49 | 1014.4 |
| 20260505234849 | 20 | 36 | 4.8 | 16.1 | 0.00 | 0.00 | 0.00 | 49 | 1014.4 |
| 20260505234348 | 20 | 345 | 6.4 | 16.1 | 0.00 | 0.00 | 0.00 | 50 | 1014.5 |
| 20260505233848 | 20 | 353 | 6.4 | 16.1 | 0.00 | 0.00 | 0.00 | 49 | 1014.4 |
| 20260505233350 | 20 | 337 | 4.8 | 14.5 | 0.00 | 0.00 | 0.00 | 48 | 1014.5 |
| 20260505232849 | 20 | 24 | 3.2 | 11.3 | 0.00 | 0.00 | 0.00 | 49 | 1014.5 |
| 20260505232349 | 21 | 22 | 4.8 | 14.5 | 0.00 | 0.00 | 0.00 | 48 | 1014.5 |
| 20260505231849 | 20 | 345 | 4.8 | 14.5 | 0.00 | 0.00 | 0.00 | 48 | 1014.5 |
| 20260505231048 | 21 | 22 | 3.2 | 12.9 | 0.00 | 0.00 | 0.00 | 48 | 1014.6 |
| 20260505230548 | 21 | 360 | 4.8 | 17.7 | 0.00 | 0.00 | 0.00 | 47 | 1014.6 |
| 20260505230048 | 21 | 308 | 8.0 | 17.7 | 0.00 | 0.00 | 0.00 | 47 | 1014.6 |
| 20260505225548 | 21 | 341 | 1.6 | 11.3 | 0.00 | 0.00 | 0.00 | 48 | 1014.6 |
| 20260505225049 | 21 | 242 | 4.8 | 12.9 | 0.00 | 0.00 | 0.00 | 48 | 1014.7 |
| 20260505224548 | 21 | 311 | 6.4 | 12.9 | 0.00 | 0.00 | 0.00 | 47 | 1014.6 |
| 20260505224048 | 21 | 278 | 6.4 | 14.5 | 0.00 | 0.00 | 0.00 | 46 | 1014.7 |
| 20260505223548 | 21 | 292 | 8.0 | 14.5 | 0.00 | 0.00 | 0.00 | 47 | 1014.7 |
| 20260505223048 | 21 | 324 | 1.6 | 12.9 | 0.00 | 0.00 | 0.00 | 49 | 1014.8 |
| 20260505222548 | 21 | 24 | 3.2 | 9.7 | 0.00 | 0.00 | 0.00 | 47 | 1014.8 |
| 20260505221611 | 21 | 274 | 8.0 | 16.1 | 0.00 | 0.00 | 0.00 | 46 | 1014.9 |
| 20260505221111 | 21 | 316 | 6.4 | 14.5 | 0.00 | 0.00 | 0.00 | 48 | 1014.8 |
| 20260505220612 | 21 | 279 | 1.6 | 16.1 | 0.00 | 0.00 | 0.00 | 46 | 1014.9 |
| 20260505220111 | 21 | 307 | 6.4 | 16.1 | 0.00 | 0.00 | 0.00 | 47 | 1014.9 |
| 20260505215611 | 21 | 35 | 3.2 | 16.1 | 0.00 | 0.00 | 0.00 | 48 | 1014.9 |
| 20260505215112 | 21 | 298 | 8.0 | 16.1 | 0.00 | 0.00 | 0.00 | 47 | 1015.0 |
| 20260505214612 | 20 | 337 | 9.7 | 16.1 | 0.00 | 0.00 | 0.00 | 51 | 1015.0 |
| 20260505214111 | 20 | 25 | 4.8 | 12.9 | 0.00 | 0.00 | 0.00 | 51 | 1015.1 |
| 20260505213611 | 20 | 326 | 1.6 | 17.7 | 0.00 | 0.00 | 0.00 | 51 | 1015.0 |
| 20260505213111 | 20 | 334 | 4.8 | 17.7 | 0.00 | 0.00 | 0.00 | 53 | 1015.1 |
| 20260505212320 | 20 | 44 | 3.2 | 16.1 | 0.00 | 0.00 | 0.00 | 54 | 1015.1 |
| 20260505211820 | 20 | 4 | 8.0 | 16.1 | 0.00 | 0.00 | 0.00 | 53 | 1015.2 |
| 20260505211320 | 20 | 15 | 6.4 | 17.7 | 0.00 | 0.00 | 0.00 | 53 | 1015.1 |
| 20260505210821 | 21 | 20 | 1.6 | 17.7 | 0.00 | 0.00 | 0.00 | 51 | 1015.2 |
| 20260505210321 | 21 | 350 | 9.7 | 17.7 | 0.00 | 0.00 | 0.00 | 52 | 1015.2 |
| 20260505205820 | 21 | 329 | 6.4 | 14.5 | 0.00 | 0.00 | 0.00 | 52 | 1015.3 |
| 20260505205320 | 21 | 279 | 6.4 | 14.5 | 0.00 | 0.00 | 0.00 | 52 | 1015.3 |
| 20260505204821 | 20 | 345 | 1.6 | 17.7 | 0.00 | 0.00 | 0.00 | 53 | 1015.2 |
| 20260505204320 | 20 | 346 | 6.4 | 17.7 | 0.00 | 0.00 | 0.00 | 54 | 1015.3 |
| 20260505203821 | 20 | 289 | 6.4 | 12.9 | 0.00 | 0.00 | 0.00 | 54 | 1015.3 |
| 20260505203320 | 20 | 335 | 3.2 | 12.9 | 0.00 | 0.00 | 0.00 | 54 | 1015.3 |
| 20260505202821 | 20 | 230 | 1.6 | 9.7 | 0.00 | 0.00 | 0.00 | 56 | 1015.2 |
| 20260505202320 | 20 | 314 | 1.6 | 12.9 | 0.00 | 0.00 | 0.00 | 55 | 1015.2 |
| 20260505201822 | 19 | 312 | 3.2 | 12.9 | 0.00 | 0.00 | 0.00 | 56 | 1015.2 |
| 20260505201320 | 19 | 324 | 6.4 | 9.7 | 0.00 | 0.00 | 0.00 | 57 | 1015.2 |
| 20260505200820 | 19 | 84 | 1.6 | 8.0 | 0.00 | 0.00 | 0.00 | 57 | 1015.2 |
| 20260505200320 | 19 | 93 | 1.6 | 8.0 | 0.00 | 0.00 | 0.00 | 58 | 1015.3 |
| 20260505195820 | 19 | 55 | 1.6 | 12.9 | 0.00 | 0.00 | 0.00 | 58 | 1015.3 |
| 20260505195320 | 19 | 23 | 4.8 | 12.9 | 0.00 | 0.00 | 0.00 | 58 | 1015.5 |
| 20260505194820 | 19 | 318 | 4.8 | 12.9 | 0.00 | 0.00 | 0.00 | 57 | 1015.6 |
| 20260505194320 | 19 | 344 | 4.8 | 12.9 | 0.00 | 0.00 | 0.00 | 58 | 1015.5 |
| 20260505193820 | 19 | 0 | 0.0 | 8.0 | 0.00 | 0.00 | 0.00 | 60 | 1015.6 |
| 20260505193320 | 18 | 0 | 0.0 | 11.3 | 0.00 | 0.00 | 0.00 | 59 | 1015.6 |
| 20260505192820 | 18 | 0 | 0.0 | 11.3 | 0.00 | 0.00 | 0.00 | 60 | 1015.7 |
| 20260505191825 | 18 | 0 | 0.0 | 12.9 | 0.00 | 0.00 | 0.00 | 61 | 1015.8 |
| 20260505191325 | 18 | 303 | 4.8 | 12.9 | 0.00 | 0.00 | 0.00 | 62 | 1015.8 |
| 20260505190825 | 18 | 0 | 0.0 | 11.3 | 0.00 | 0.00 | 0.00 | 63 | 1015.8 |
| 20260505190326 | 18 | 0 | 0.0 | 12.9 | 0.00 | 0.00 | 0.00 | 62 | 1015.8 |
| 20260505185825 | 18 | 309 | 6.4 | 12.9 | 0.00 | 0.00 | 0.00 | 62 | 1015.8 |
| 20260505185325 | 18 | 335 | 6.4 | 12.9 | 0.00 | 0.00 | 0.00 | 63 | 1015.8 |
| 20260505184825 | 17 | 321 | 4.8 | 9.7 | 0.00 | 0.00 | 0.00 | 64 | 1015.7 |
| 20260505184325 | 17 | 313 | 3.2 | 8.0 | 0.00 | 0.00 | 0.00 | 67 | 1015.8 |
| 20260505183825 | 17 | 0 | 0.0 | 6.4 | 0.00 | 0.00 | 0.00 | 67 | 1015.7 |
| 20260505183326 | 17 | 131 | 3.2 | 8.0 | 0.00 | 0.00 | 0.00 | 68 | 1015.6 |
| 20260505182825 | 17 | 119 | 4.8 | 8.0 | 0.00 | 0.00 | 0.00 | 66 | 1015.7 |
| 20260505182325 | 17 | 80 | 1.6 | 6.4 | 0.00 | 0.00 | 0.00 | 67 | 1015.7 |
| 20260505181825 | 17 | 0 | 0.0 | 4.8 | 0.00 | 0.00 | 0.00 | 65 | 1015.8 |
| 20260505181043 | 17 | 270 | 4.8 | 9.7 | 0.00 | 0.00 | 0.00 | 65 | 1015.7 |
| 20260505180542 | 17 | 314 | 3.2 | 9.7 | 0.00 | 0.00 | 0.00 | 66 | 1015.7 |
| 20260505180042 | 17 | 303 | 3.2 | 8.0 | 0.00 | 0.00 | 0.00 | 66 | 1015.7 |